ACA772 CYYZ-KBOS

Flight info

Callsign ACA772
Flight time 1h 10m
Altitude 37000
Route KEPTA3 BMPAH DCT AEVON DCT HANKK DCT PONCT JFUND2
Aircraft A320/M-SDE3FGHIRWY/LB1

Departure

Time 2026-05-08 01:46
Airport Toronto Pearson International Airport (CYYZ)

Arrival

Time 2026-05-08 02:57
Airport Boston Logan International Airport (KBOS)
Time Latitude Longitude Altitude Speed Heading
2026-05-08 00:56 43.67926 -79.60695 571 ft 0 kts 226°
2026-05-08 01:31 43.67929 -79.60691 561 ft 3 kts 226°
2026-05-08 01:31 43.67948 -79.60665 566 ft 4 kts 219°
2026-05-08 01:31 43.67970 -79.60644 571 ft 4 kts 203°
2026-05-08 01:32 43.67993 -79.60638 570 ft 4 kts 153°
2026-05-08 01:32 43.67999 -79.60642 568 ft 0 kts 136°
2026-05-08 01:37 43.67998 -79.60641 568 ft 2 kts 136°
2026-05-08 01:37 43.67956 -79.60585 566 ft 11 kts 136°
2026-05-08 01:37 43.67904 -79.60517 561 ft 9 kts 136°
2026-05-08 01:37 43.67864 -79.60457 561 ft 8 kts 123°
2026-05-08 01:38 43.67835 -79.60400 566 ft 8 kts 134°
2026-05-08 01:38 43.67770 -79.60397 566 ft 11 kts 223°
2026-05-08 01:38 43.67722 -79.60465 566 ft 9 kts 226°
2026-05-08 01:38 43.67683 -79.60521 561 ft 7 kts 228°
2026-05-08 01:39 43.67623 -79.60610 564 ft 18 kts 225°
2026-05-08 01:39 43.67522 -79.60755 567 ft 23 kts 225°
2026-05-08 01:39 43.67414 -79.60920 561 ft 25 kts 240°
2026-05-08 01:39 43.67317 -79.61109 561 ft 22 kts 233°
2026-05-08 01:40 43.67260 -79.61223 563 ft 8 kts 259°
2026-05-08 01:40 43.67301 -79.61293 569 ft 12 kts 316°
2026-05-08 01:40 43.67375 -79.61392 567 ft 17 kts 316°
2026-05-08 01:40 43.67475 -79.61520 563 ft 22 kts 315°
2026-05-08 01:41 43.67597 -79.61678 573 ft 26 kts 318°
2026-05-08 01:41 43.67741 -79.61866 563 ft 31 kts 315°
2026-05-08 01:41 43.67903 -79.62071 568 ft 25 kts 333°
2026-05-08 01:41 43.68043 -79.62193 562 ft 25 kts 315°
2026-05-08 01:42 43.68181 -79.62372 562 ft 29 kts 317°
2026-05-08 01:42 43.68320 -79.62540 569 ft 26 kts 316°
2026-05-08 01:42 43.68456 -79.62722 566 ft 29 kts 317°
2026-05-08 01:42 43.68615 -79.62927 561 ft 33 kts 316°
2026-05-08 01:43 43.68774 -79.63133 566 ft 28 kts 316°
2026-05-08 01:43 43.68927 -79.63333 565 ft 32 kts 316°
2026-05-08 01:43 43.69068 -79.63518 564 ft 12 kts 316°
2026-05-08 01:43 43.69141 -79.63499 565 ft 14 kts 45°
2026-05-08 01:44 43.69197 -79.63429 569 ft 7 kts 28°
2026-05-08 01:44 43.69259 -79.63424 566 ft 12 kts
2026-05-08 01:44 43.69342 -79.63423 567 ft 8 kts 358°
2026-05-08 01:44 43.69400 -79.63477 561 ft 9 kts 315°
2026-05-08 01:45 43.69390 -79.63544 563 ft 10 kts 226°
2026-05-08 01:45 43.69385 -79.63551 561 ft 0 kts 226°
2026-05-08 01:45 43.69377 -79.63564 563 ft 12 kts 226°
2026-05-08 01:46 43.69132 -79.63919 569 ft 86 kts 226°
2026-05-08 01:46 43.68579 -79.64722 568 ft 143 kts 226°
2026-05-08 01:46 43.67789 -79.65870 674 ft 177 kts 227°
2026-05-08 01:46 43.66932 -79.67092 1341 ft 179 kts 228°
2026-05-08 01:47 43.66057 -79.68349 2028 ft 184 kts 228°
2026-05-08 01:47 43.65153 -79.69651 2570 ft 196 kts 228°
2026-05-08 01:47 43.64151 -79.71094 2831 ft 222 kts 228°
2026-05-08 01:48 43.61773 -79.74543 3816 ft 261 kts 228°
2026-05-08 01:48 43.60521 -79.76361 4815 ft 261 kts 229°
2026-05-08 01:48 43.59241 -79.78141 5796 ft 263 kts 221°
2026-05-08 01:48 43.57614 -79.79311 6701 ft 270 kts 199°
2026-05-08 01:49 43.55723 -79.79467 6901 ft 279 kts 172°
2026-05-08 01:49 43.53988 -79.78325 6998 ft 286 kts 142°
2026-05-08 01:49 43.52779 -79.76148 7067 ft 291 kts 114°
2026-05-08 01:49 43.52277 -79.73399 6996 ft 293 kts 100°
2026-05-08 01:50 43.51931 -79.70680 6931 ft 292 kts 100°
2026-05-08 01:50 43.51571 -79.67892 6929 ft 292 kts 100°
2026-05-08 01:50 43.51225 -79.65178 6922 ft 292 kts 101°
2026-05-08 01:50 43.50839 -79.62436 6975 ft 292 kts 102°
2026-05-08 01:51 43.50553 -79.59661 7023 ft 292 kts 92°
2026-05-08 01:51 43.50658 -79.56870 7024 ft 292 kts 79°
2026-05-08 01:51 43.51127 -79.54159 7025 ft 291 kts 73°
2026-05-08 01:51 43.51651 -79.51462 7025 ft 291 kts 73°
2026-05-08 01:52 43.52074 -79.48733 7017 ft 292 kts 86°
2026-05-08 01:52 43.51830 -79.45970 7023 ft 292 kts 108°
2026-05-08 01:52 43.51218 -79.43276 7419 ft 298 kts 108°
2026-05-08 01:52 43.50590 -79.40556 8391 ft 298 kts 109°
2026-05-08 01:53 43.49959 -79.37822 9233 ft 302 kts 109°
2026-05-08 01:53 43.49316 -79.35046 10024 ft 306 kts 109°
2026-05-08 01:53 43.48650 -79.32174 10420 ft 326 kts 109°
2026-05-08 01:53 43.47936 -79.29101 10718 ft 346 kts 109°
2026-05-08 01:54 43.47196 -79.25915 11360 ft 352 kts 109°
2026-05-08 01:54 43.46444 -79.22680 12090 ft 357 kts 109°
2026-05-08 01:54 43.45683 -79.19417 12832 ft 360 kts 110°
2026-05-08 01:54 43.44912 -79.16115 13569 ft 364 kts 110°
2026-05-08 01:55 43.44114 -79.12787 14222 ft 367 kts 113°
2026-05-08 01:55 43.43128 -79.09538 14833 ft 371 kts 115°
2026-05-08 01:55 43.42112 -79.06253 15457 ft 374 kts 115°
2026-05-08 01:55 43.41084 -79.02939 16113 ft 377 kts 115°
2026-05-08 01:56 43.40048 -78.99612 16741 ft 380 kts 115°
2026-05-08 01:56 43.39002 -78.96251 17342 ft 384 kts 114°
2026-05-08 01:56 43.37943 -78.92852 17949 ft 388 kts 114°
2026-05-08 01:56 43.36875 -78.89426 18503 ft 392 kts 114°
2026-05-08 01:57 43.35798 -78.85970 19053 ft 395 kts 114°
2026-05-08 01:57 43.34724 -78.82534 19583 ft 398 kts 114°
2026-05-08 01:57 43.33622 -78.79028 20134 ft 401 kts 114°
2026-05-08 01:57 43.32514 -78.75495 20683 ft 404 kts 114°
2026-05-08 01:58 43.31400 -78.71939 21229 ft 406 kts 114°
2026-05-08 01:58 43.30274 -78.68358 21776 ft 409 kts 114°
2026-05-08 01:58 43.29142 -78.64766 22327 ft 412 kts 114°
2026-05-08 01:58 43.28001 -78.61150 22861 ft 415 kts 114°
2026-05-08 01:59 43.26844 -78.57489 23380 ft 418 kts 114°
2026-05-08 01:59 43.25699 -78.53869 23799 ft 421 kts 114°
2026-05-08 01:59 43.24525 -78.50158 24089 ft 427 kts 115°
2026-05-08 01:59 43.23333 -78.46393 24378 ft 433 kts 115°
2026-05-08 02:00 43.22125 -78.42577 24713 ft 438 kts 115°
2026-05-08 02:00 43.20906 -78.38731 25049 ft 442 kts 115°
2026-05-08 02:00 43.19656 -78.34865 25371 ft 445 kts 118°
2026-05-08 02:00 43.18095 -78.31198 25711 ft 446 kts 128°
2026-05-08 02:01 43.16183 -78.27856 26037 ft 447 kts 133°
2026-05-08 02:01 43.14195 -78.24554 26375 ft 450 kts 133°
2026-05-08 02:01 43.12201 -78.21225 26720 ft 454 kts 133°
2026-05-08 02:01 43.10193 -78.17857 27046 ft 457 kts 133°
2026-05-08 02:02 43.08177 -78.14474 27366 ft 460 kts 133°
2026-05-08 02:02 43.06148 -78.11073 27679 ft 464 kts 134°
2026-05-08 02:02 43.04100 -78.07643 27984 ft 467 kts 134°
2026-05-08 02:02 43.02034 -78.04190 28290 ft 470 kts 134°
2026-05-08 02:03 42.99958 -78.00730 28570 ft 473 kts 134°
2026-05-08 02:03 42.97856 -77.97242 28805 ft 478 kts 135°
2026-05-08 02:03 42.95739 -77.93709 29047 ft 483 kts 133°
2026-05-08 02:03 42.93876 -77.89843 29317 ft 493 kts 123°
2026-05-08 02:04 42.92445 -77.85546 29596 ft 502 kts 113°
2026-05-08 02:04 42.91507 -77.80925 29837 ft 510 kts 103°
2026-05-08 02:04 42.91090 -77.76093 30074 ft 516 kts 93°
2026-05-08 02:04 42.90981 -77.71181 30287 ft 519 kts 93°
2026-05-08 02:05 42.90867 -77.66249 30512 ft 521 kts 93°
2026-05-08 02:05 42.90745 -77.61369 30721 ft 523 kts 93°
2026-05-08 02:05 42.90611 -77.56339 30902 ft 526 kts 94°
2026-05-08 02:05 42.90476 -77.51341 31075 ft 529 kts 94°
2026-05-08 02:06 42.90342 -77.46319 31282 ft 530 kts 94°
2026-05-08 02:06 42.90209 -77.41298 31573 ft 530 kts 94°
2026-05-08 02:06 42.90078 -77.36332 31860 ft 530 kts 94°
2026-05-08 02:06 42.89943 -77.31297 32149 ft 530 kts 94°
2026-05-08 02:07 42.89807 -77.26278 32433 ft 530 kts 94°
2026-05-08 02:07 42.89668 -77.21254 32708 ft 530 kts 94°
2026-05-08 02:07 42.89522 -77.16234 32973 ft 530 kts 94°
2026-05-08 02:07 42.89371 -77.11218 33251 ft 530 kts 94°
2026-05-08 02:08 42.89218 -77.06194 33535 ft 530 kts 94°
2026-05-08 02:08 42.89065 -77.01161 33843 ft 530 kts 94°
2026-05-08 02:08 42.88912 -76.96139 34150 ft 528 kts 94°
2026-05-08 02:08 42.88756 -76.91139 34456 ft 526 kts 94°
2026-05-08 02:09 42.88596 -76.86166 34683 ft 525 kts 95°
2026-05-08 02:09 42.88432 -76.81204 34947 ft 523 kts 94°
2026-05-08 02:09 42.88270 -76.76309 35189 ft 522 kts 95°
2026-05-08 02:09 42.88104 -76.71368 35417 ft 521 kts 95°
2026-05-08 02:10 42.87939 -76.66428 35639 ft 521 kts 95°
2026-05-08 02:10 42.87772 -76.61491 35856 ft 520 kts 95°
2026-05-08 02:10 42.87602 -76.56575 36062 ft 519 kts 95°
2026-05-08 02:10 42.87430 -76.51666 36251 ft 519 kts 95°
2026-05-08 02:11 42.87257 -76.46755 36415 ft 518 kts 95°
2026-05-08 02:11 42.87083 -76.41844 36590 ft 518 kts 95°
2026-05-08 02:11 42.86907 -76.36932 36759 ft 518 kts 95°
2026-05-08 02:11 42.86729 -76.32042 36906 ft 518 kts 96°
2026-05-08 02:12 42.86364 -76.22263 36931 ft 515 kts 96°
2026-05-08 02:12 42.85987 -76.12517 36926 ft 515 kts 96°
2026-05-08 02:13 42.85600 -76.02755 36931 ft 516 kts 96°
2026-05-08 02:13 42.85207 -75.92987 36938 ft 516 kts 96°
2026-05-08 02:14 42.84816 -75.83274 36937 ft 516 kts 96°
2026-05-08 02:14 42.84406 -75.73506 36911 ft 517 kts 97°
2026-05-08 02:15 42.83989 -75.63715 36917 ft 518 kts 97°
2026-05-08 02:15 42.83570 -75.53921 36923 ft 518 kts 97°
2026-05-08 02:16 42.83134 -75.44108 36922 ft 519 kts 97°
2026-05-08 02:16 42.82681 -75.34297 36911 ft 519 kts 97°
2026-05-08 02:17 42.82228 -75.24471 36915 ft 520 kts 97°
2026-05-08 02:17 42.81773 -75.14639 36920 ft 520 kts 97°
2026-05-08 02:18 42.81307 -75.04796 36899 ft 521 kts 98°
2026-05-08 02:18 42.80829 -74.94956 36908 ft 521 kts 98°
2026-05-08 02:19 42.80336 -74.85115 36916 ft 521 kts 98°
2026-05-08 02:19 42.79846 -74.75326 36919 ft 521 kts 98°
2026-05-08 02:20 42.79342 -74.65468 36958 ft 521 kts 98°
2026-05-08 02:20 42.78834 -74.55625 36945 ft 521 kts 98°
2026-05-08 02:21 42.78408 -74.47393 36938 ft 520 kts 98°
2026-05-08 02:21 42.77882 -74.37565 36933 ft 520 kts 98°
2026-05-08 02:22 42.77339 -74.27753 36909 ft 520 kts 99°
2026-05-08 02:22 42.76791 -74.17923 36906 ft 520 kts 99°
2026-05-08 02:23 42.76242 -74.08166 36904 ft 521 kts 99°
2026-05-08 02:23 42.75675 -73.98345 36896 ft 521 kts 99°
2026-05-08 02:24 42.75107 -73.88507 36899 ft 522 kts 99°
2026-05-08 02:24 42.74560 -73.78642 36905 ft 524 kts 97°
2026-05-08 02:25 42.74410 -73.68692 36912 ft 527 kts 94°
2026-05-08 02:25 42.74496 -73.58693 36515 ft 531 kts 94°
2026-05-08 02:26 42.74519 -73.53642 35715 ft 534 kts 94°
2026-05-08 02:26 42.74505 -73.48566 34793 ft 539 kts 95°
2026-05-08 02:26 42.74461 -73.43455 34010 ft 541 kts 96°
2026-05-08 02:26 42.74400 -73.38373 33084 ft 535 kts 96°
2026-05-08 02:27 42.74337 -73.33365 32415 ft 522 kts 96°
2026-05-08 02:27 42.74279 -73.28494 31736 ft 510 kts 96°
2026-05-08 02:27 42.74224 -73.23718 31192 ft 498 kts 97°
2026-05-08 02:27 42.74171 -73.19043 30588 ft 490 kts 97°
2026-05-08 02:28 42.74120 -73.14454 30014 ft 482 kts 97°
2026-05-08 02:28 42.73912 -73.09977 29448 ft 463 kts 107°
2026-05-08 02:28 42.73428 -73.05772 29018 ft 449 kts 108°
2026-05-08 02:28 42.72946 -73.01608 28580 ft 445 kts 108°
2026-05-08 02:29 42.72467 -72.97470 28156 ft 442 kts 108°
2026-05-08 02:29 42.71993 -72.93359 27711 ft 438 kts 108°
2026-05-08 02:29 42.71520 -72.89266 27318 ft 437 kts 108°
2026-05-08 02:29 42.71048 -72.85198 26904 ft 434 kts 108°
2026-05-08 02:30 42.70576 -72.81166 26490 ft 430 kts 108°
2026-05-08 02:30 42.70106 -72.77171 26086 ft 426 kts 108°
2026-05-08 02:30 42.69637 -72.73212 25671 ft 424 kts 108°
2026-05-08 02:30 42.69168 -72.69262 25241 ft 421 kts 108°
2026-05-08 02:31 42.68703 -72.65350 24821 ft 419 kts 108°
2026-05-08 02:31 42.68238 -72.61443 24372 ft 418 kts 108°
2026-05-08 02:31 42.67772 -72.57541 23977 ft 419 kts 108°
2026-05-08 02:31 42.67291 -72.53606 23583 ft 426 kts 108°
2026-05-08 02:32 42.66798 -72.49611 22904 ft 429 kts 108°
2026-05-08 02:32 42.66311 -72.45628 22477 ft 425 kts 108°
2026-05-08 02:32 42.65828 -72.41678 22016 ft 423 kts 108°
2026-05-08 02:32 42.65351 -72.37755 21566 ft 419 kts 107°
2026-05-08 02:33 42.64874 -72.33861 21140 ft 417 kts 107°
2026-05-08 02:33 42.64400 -72.29988 20713 ft 413 kts 107°
2026-05-08 02:33 42.63959 -72.26240 20476 ft 403 kts 106°
2026-05-08 02:33 42.63529 -72.22504 19961 ft 398 kts 106°
2026-05-08 02:34 42.63104 -72.18811 19494 ft 394 kts 106°
2026-05-08 02:34 42.62680 -72.15158 19018 ft 389 kts 106°
2026-05-08 02:34 42.62258 -72.11549 18544 ft 385 kts 106°
2026-05-08 02:34 42.61836 -72.07967 18071 ft 382 kts 106°
2026-05-08 02:35 42.61415 -72.04426 17683 ft 377 kts 105°
2026-05-08 02:35 42.60992 -72.00913 17219 ft 377 kts 105°
2026-05-08 02:35 42.60564 -71.97424 16911 ft 371 kts 105°
2026-05-08 02:35 42.60133 -71.93972 16442 ft 371 kts 105°
2026-05-08 02:36 42.59704 -71.90541 16140 ft 366 kts 105°
2026-05-08 02:36 42.59279 -71.87146 15730 ft 365 kts 104°
2026-05-08 02:36 42.58856 -71.83776 15344 ft 362 kts 104°
2026-05-08 02:36 42.58424 -71.80435 14998 ft 355 kts 104°
2026-05-08 02:37 42.57944 -71.77155 14483 ft 353 kts 105°
2026-05-08 02:37 42.57435 -71.73947 14052 ft 350 kts 105°
2026-05-08 02:37 42.56910 -71.70742 13628 ft 346 kts 105°
2026-05-08 02:37 42.56386 -71.67575 13133 ft 343 kts 105°
2026-05-08 02:38 42.55868 -71.64421 12694 ft 339 kts 104°
2026-05-08 02:38 42.55364 -71.61321 12290 ft 335 kts 104°
2026-05-08 02:38 42.54857 -71.58245 11914 ft 332 kts 105°
2026-05-08 02:38 42.54282 -71.55225 11604 ft 330 kts 107°
2026-05-08 02:39 42.53664 -71.52250 11290 ft 327 kts 108°
2026-05-08 02:39 42.53031 -71.49304 10963 ft 324 kts 108°
2026-05-08 02:39 42.52397 -71.46380 10651 ft 322 kts 108°
2026-05-08 02:39 42.51773 -71.43476 10342 ft 320 kts 107°
2026-05-08 02:40 42.51161 -71.40606 10072 ft 314 kts 107°
2026-05-08 02:40 42.50571 -71.37815 9912 ft 310 kts 107°
2026-05-08 02:40 42.49987 -71.35005 9793 ft 309 kts 106°
2026-05-08 02:40 42.49422 -71.32194 9546 ft 308 kts 105°
2026-05-08 02:41 42.48869 -71.29396 9277 ft 306 kts 105°
2026-05-08 02:41 42.48323 -71.26620 8995 ft 304 kts 105°
2026-05-08 02:41 42.47774 -71.23861 8701 ft 302 kts 105°
2026-05-08 02:41 42.47227 -71.21125 8417 ft 301 kts 105°
2026-05-08 02:42 42.46681 -71.18394 8149 ft 299 kts 105°
2026-05-08 02:42 42.46158 -71.15678 7871 ft 297 kts 101°
2026-05-08 02:42 42.45882 -71.12917 7597 ft 295 kts 96°
2026-05-08 02:42 42.45638 -71.10171 7325 ft 293 kts 96°
2026-05-08 02:43 42.45395 -71.07484 7158 ft 282 kts 96°
2026-05-08 02:43 42.45157 -71.04901 7030 ft 270 kts 96°
2026-05-08 02:43 42.44926 -71.02421 6830 ft 262 kts 96°
2026-05-08 02:43 42.44653 -71.00044 6623 ft 256 kts 98°
2026-05-08 02:44 42.44338 -70.97645 6508 ft 255 kts 97°
2026-05-08 02:44 42.44269 -70.95293 6383 ft 253 kts 82°
2026-05-08 02:44 42.44578 -70.92966 6261 ft 251 kts 76°
2026-05-08 02:44 42.44932 -70.90655 6139 ft 250 kts 76°
2026-05-08 02:45 42.45287 -70.88363 6022 ft 245 kts 75°
2026-05-08 02:45 42.45634 -70.86155 6018 ft 238 kts 76°
2026-05-08 02:45 42.45973 -70.83968 6020 ft 237 kts 76°
2026-05-08 02:45 42.46306 -70.81779 6020 ft 237 kts 77°
2026-05-08 02:46 42.46634 -70.79585 6019 ft 239 kts 77°
2026-05-08 02:46 42.46962 -70.77368 6019 ft 240 kts 77°
2026-05-08 02:46 42.47287 -70.75153 6017 ft 240 kts 77°
2026-05-08 02:46 42.47609 -70.72933 6016 ft 240 kts 77°
2026-05-08 02:47 42.47929 -70.70710 6015 ft 240 kts 77°
2026-05-08 02:47 42.48249 -70.68486 6013 ft 240 kts 77°
2026-05-08 02:47 42.48568 -70.66259 6012 ft 241 kts 77°
2026-05-08 02:47 42.48887 -70.64030 6003 ft 241 kts 77°
2026-05-08 02:48 42.49207 -70.61798 5733 ft 241 kts 77°
2026-05-08 02:48 42.49514 -70.59560 5338 ft 242 kts 82°
2026-05-08 02:48 42.49309 -70.57340 4957 ft 244 kts 114°
2026-05-08 02:48 42.48275 -70.55560 4562 ft 242 kts 147°
2026-05-08 02:49 42.46763 -70.54607 4171 ft 239 kts 163°
2026-05-08 02:49 42.45189 -70.53955 3997 ft 233 kts 173°
2026-05-08 02:49 42.43584 -70.53887 4003 ft 230 kts 193°
2026-05-08 02:49 42.42122 -70.54632 4002 ft 223 kts 219°
2026-05-08 02:50 42.41180 -70.56200 4003 ft 214 kts 254°
2026-05-08 02:50 42.41018 -70.58157 4006 ft 210 kts 279°
2026-05-08 02:50 42.41314 -70.60082 4007 ft 209 kts 289°
2026-05-08 02:50 42.41891 -70.61886 4005 ft 209 kts 297°
2026-05-08 02:51 42.42426 -70.63718 4005 ft 210 kts 286°
2026-05-08 02:51 42.42354 -70.65658 4008 ft 214 kts 246°
2026-05-08 02:51 42.41546 -70.67375 4004 ft 217 kts 244°
2026-05-08 02:51 42.41130 -70.69281 4014 ft 206 kts 263°
2026-05-08 02:52 42.40858 -70.71122 4006 ft 194 kts 261°
2026-05-08 02:52 42.40556 -70.72915 3653 ft 199 kts 260°
2026-05-08 02:52 42.40236 -70.74762 3251 ft 205 kts 260°
2026-05-08 02:52 42.39908 -70.76640 3019 ft 200 kts 261°
2026-05-08 02:53 42.39595 -70.78422 2995 ft 192 kts 261°
2026-05-08 02:53 42.39295 -70.80142 2846 ft 184 kts 261°
2026-05-08 02:53 42.39005 -70.81798 2594 ft 178 kts 261°
2026-05-08 02:53 42.38729 -70.83374 2364 ft 172 kts 261°
2026-05-08 02:54 42.38458 -70.84918 2138 ft 166 kts 262°
2026-05-08 02:54 42.38199 -70.86394 1917 ft 155 kts 262°
2026-05-08 02:54 42.37959 -70.87755 1716 ft 145 kts 263°
2026-05-08 02:54 42.37731 -70.89057 1509 ft 141 kts 262°
2026-05-08 02:55 42.37507 -70.90333 1317 ft 137 kts 261°
2026-05-08 02:55 42.37078 -70.92774 973 ft 132 kts 260°
2026-05-08 02:55 42.36867 -70.93976 791 ft 132 kts 259°
2026-05-08 02:56 42.36656 -70.95171 615 ft 130 kts 259°
2026-05-08 02:56 42.36446 -70.96356 431 ft 131 kts 258°
2026-05-08 02:56 42.36234 -70.97537 279 ft 129 kts 259°
2026-05-08 02:56 42.36032 -70.98717 66 ft 127 kts 258°
2026-05-08 02:57 42.35840 -70.99825 26 ft 108 kts 258°
2026-05-08 02:57 42.35703 -71.00588 25 ft 59 kts 257°
2026-05-08 02:57 42.35634 -71.00983 25 ft 28 kts 262°
2026-05-08 02:57 42.35682 -71.01192 27 ft 15 kts 307°
2026-05-08 02:58 42.35709 -71.01240 27 ft 6 kts 308°
2026-05-08 02:58 42.35736 -71.01292 26 ft 8 kts 297°
2026-05-08 02:58 42.35759 -71.01370 28 ft 10 kts 290°
2026-05-08 02:58 42.35784 -71.01468 28 ft 12 kts 290°
2026-05-08 02:59 42.35814 -71.01583 25 ft 14 kts 287°
2026-05-08 02:59 42.35836 -71.01718 30 ft 14 kts 281°
2026-05-08 02:59 42.35856 -71.01842 27 ft 14 kts 285°
2026-05-08 02:59 42.35904 -71.01969 30 ft 16 kts 301°
2026-05-08 03:00 42.35965 -71.02105 29 ft 18 kts 301°
2026-05-08 03:00 42.36025 -71.02241 28 ft 17 kts 301°
2026-05-08 03:00 42.36081 -71.02314 25 ft 11 kts 335°
2026-05-08 03:00 42.36155 -71.02294 28 ft 11 kts 23°
2026-05-08 03:01 42.36221 -71.02258 27 ft 9 kts 21°
2026-05-08 03:01 42.36265 -71.02207 29 ft 8 kts 68°
2026-05-08 03:01 42.36279 -71.02139 29 ft 7 kts 73°
2026-05-08 03:01 42.36288 -71.02094 25 ft 3 kts 73°
2026-05-08 03:02 42.36293 -71.02073 27 ft 2 kts 74°
2026-05-08 03:02 42.36292 -71.02063 28 ft 0 kts 95°
2026-05-08 03:02 42.36283 -71.02032 25 ft 6 kts 115°
2026-05-08 03:02 42.36273 -71.02003 28 ft 2 kts 117°
2026-05-08 03:03 42.36268 -71.01989 29 ft 1 kts 116°
2026-05-08 03:03 42.36266 -71.01984 29 ft 0 kts 116°
2026-05-08 03:03 42.36265 -71.01982 29 ft 1 kts 116°
2026-05-08 03:03 42.36264 -71.01980 28 ft 0 kts 116°